[[{"header":{"parameterUnit":"m.s-1","parameterCategory":1,"la1":30.2991,"la2":30.254,"lo1":-89.0895,"lo2":-89.0444,"dy":0.0017,"dx":0.0017,"nx":28,"ny":28,"refTime":"2025-11-13T09:00:00:Z","depth":0,"parameterNumber":2,"parameterNumberName":"U-component_of_WINDS"},"data":[0,0,0,0,0,0,0,0,0,0,0,0,0,0,0,0,0,0,0,0,0,0,0,0,0,0,0,0,0,0,0,0,0,0,0,0,0,0,0,0,0,0,0,0,0,0,0,0,0,0,0,0,0,0,0,0,0,0,1.1389,1.139,0,1.1499,1.15,1.1502,1.1512,1.1511,1.151,1.1509,1.1623,1.1627,1.1631,0,0,0,0,0,0,0,0,0,0,0,0,0,1.1188,1.1192,1.1389,1.139,1.1392,1.1499,1.15,1.1502,1.1513,1.1511,1.151,1.1508,1.1621,1.1626,1.1631,0,0,0,0,0,0,0,0,0,0,0,0,0,1.1284,1.1193,1.1389,1.141,1.1413,1.1499,1.15,1.1502,1.1513,1.1511,1.1509,1.1508,1.162,1.1626,1.1632,1.1704,0,0,1.1651,1.1653,0,0,0,0,0,0,0,0,1.1279,1.1292,1.1405,1.1409,1.1412,1.149,1.1471,1.157,1.1513,1.1475,1.1509,1.1507,1.158,1.1589,1.1614,1.171,1.1714,1.1651,1.1655,1.1657,1.1659,0,0,0,0,0,0,0,1.1272,1.1287,1.1433,1.1407,1.1411,1.1414,1.1426,1.149,1.1536,1.1478,1.1479,1.1492,1.1582,1.1608,1.1617,1.1716,1.1651,1.1656,1.166,1.1663,1.1876,1.1877,0,0,0,0,0,0,1.1262,1.1281,1.1429,1.1436,1.134,1.1419,1.1432,1.1467,1.1535,1.1544,1.1493,1.1492,1.1598,1.1609,1.1621,1.1709,1.1657,1.1663,1.1667,1.1874,1.1876,1.1878,0,0,0,0,0,0,1.1257,1.1275,1.1425,1.1359,1.1378,1.1424,1.1463,1.147,1.1496,1.1547,1.1555,1.1512,1.1597,1.1612,1.1683,1.1713,1.1666,1.1672,1.1871,1.1874,1.1877,1.1887,0,0,0,0,0,0,1.1251,1.1273,1.1301,1.136,1.1382,1.1485,1.1465,1.1473,1.1507,1.1506,1.1566,1.1574,1.1597,1.1674,1.1689,1.1721,1.1676,1.1869,1.1873,1.1876,1.1884,1.189,1.1895,0,0,0,0,0,1.1244,1.13,1.1302,1.132,1.1418,1.1487,1.15,1.1524,1.1509,1.1538,1.157,1.1573,1.1707,1.1681,1.1698,1.1732,1.1867,1.1872,1.1876,1.1882,1.1889,1.1895,0,0,0,0,0,0,1.1244,1.1308,1.1312,1.1388,1.1432,1.1489,1.1525,1.1531,1.1581,1.1578,1.1607,1.162,1.169,1.1718,1.1688,1.1805,1.1786,1.1794,1.1784,1.1791,1.1796,1.1788,1.1681,0,0,0,0,0,1.1253,1.1304,1.1357,1.1419,1.1441,1.1479,1.151,1.1525,1.1572,1.1591,1.1628,1.1674,1.1726,1.176,1.1812,1.1888,1.1901,1.192,1.1925,1.193,1.1936,1.1978,1.1986,1.1893,1.1893,1.1892,0,0,1.1272,1.1313,1.1344,1.142,1.1456,1.1508,1.1495,1.155,1.1589,1.16,1.1668,1.1697,1.175,1.1824,1.1858,1.185,1.1965,1.1935,1.1938,1.1943,1.1983,1.1992,1.2,1.1896,1.1895,1.1895,0,0,1.1333,1.1369,1.1425,1.146,1.1515,1.154,1.1553,1.1609,1.1628,1.1698,1.1706,1.1753,1.1843,1.188,1.191,1.1983,1.1988,1.1999,1.2027,1.2067,1.2075,1.2081,1.2107,1.2116,1.2006,1.2006,1.2006,0,1.135,1.1428,1.1452,1.1507,1.154,1.1552,1.1608,1.1641,1.171,1.1732,1.1722,1.1834,1.187,1.1952,1.197,1.1995,1.201,1.1993,1.2072,1.2079,1.2085,1.211,1.2119,1.2007,1.2007,1.2007,1.2007,0,1.1445,1.1499,1.1537,1.1602,1.1639,1.1695,1.1727,1.1762,1.1774,1.18,1.187,1.1914,1.1974,1.1994,1.2007,1.2078,1.2071,1.2066,1.2046,1.2095,1.2118,1.2128,1.2008,1.2008,1.2008,1.2007,0,0,1.1509,1.1586,1.16,1.1629,1.1689,1.1731,1.1787,1.1844,1.1873,1.192,1.1967,1.2042,1.2037,1.2072,1.2088,1.2124,1.2178,1.2114,1.2116,1.2124,1.2258,1.2261,1.2272,1.2181,1.2183,1.2185,1.2254,0,1.1576,1.1675,1.1698,1.1783,1.1832,1.1843,1.1891,1.1933,1.1959,1.2005,1.2033,1.2086,1.2076,1.2097,1.2132,1.2164,1.2205,1.2159,1.2225,1.2227,1.221,1.2284,1.2288,1.2351,1.2263,1.2265,1.2266,0,1.1667,1.1715,1.1804,1.1857,1.1878,1.1921,1.1976,1.2019,1.2067,1.2083,1.2121,1.2134,1.2191,1.2169,1.2249,1.2217,1.2245,1.2265,1.2268,1.2275,1.2249,1.2292,1.2372,1.2381,1.2281,1.2279,1.2278,0,1.1704,1.179,1.1855,1.1879,1.1943,1.1972,1.2,1.2046,1.2079,1.2127,1.2148,1.2202,1.2232,1.2273,1.23,1.2281,1.2377,1.2357,1.2392,1.2391,1.2411,1.2409,1.2495,1.243,1.243,1.243,1.243,0,1.1776,1.1829,1.1872,1.1911,1.1972,1.1998,1.2057,1.2085,1.2126,1.2171,1.2184,1.2226,1.2259,1.2305,1.2327,1.2389,1.2402,1.2417,1.2422,1.2415,1.2413,1.2434,1.243,1.2432,1.2432,1.2431,1.2431,0,1.1827,1.1857,1.1928,1.1982,1.1996,1.2038,1.2085,1.2123,1.2149,1.2205,1.222,1.2261,1.2316,1.2346,1.2416,1.243,1.25,1.2503,1.2483,1.2485,1.2518,1.2514,1.262,1.2634,1.256,1.256,1.2561,0,1.187,1.1912,1.197,1.2,1.2028,1.2078,1.2111,1.2139,1.2173,1.223,1.2262,1.2317,1.2363,1.2451,1.2487,1.254,1.2544,1.2577,1.2552,1.2544,1.2543,1.254,1.2544,1.2581,1.2582,1.2583,1.2583,0,1.1943,1.1956,1.2004,1.2057,1.2096,1.2139,1.2182,1.2206,1.224,1.2278,1.2334,1.237,1.2441,1.2496,1.2551,1.258,1.2587,1.2591,1.2601,1.2595,1.2582,1.2588,1.2494,1.2588,1.2588,1.2587,1.2587,1.2587,1.1992,1.2029,1.2075,1.2127,1.2162,1.2201,1.224,1.227,1.2317,1.2376,1.239,1.2449,1.2495,1.257,1.26,1.2647,1.2641,1.2656,1.266,1.2663,1.2664,1.2574,1.2657,1.2657,1.2657,1.2657,1.2657,0,1.2065,1.2095,1.2143,1.2202,1.2243,1.2245,1.2293,1.2327,1.2378,1.242,1.2465,1.2529,1.2583,1.2622,1.2676,1.2706,1.2711,1.2719,1.2717,1.2723,1.2667,1.2652,1.2715,1.2715,1.2715,1.2715,1.2715,1.2715,1.2108,1.217,1.2189,1.2268,1.2298,1.2356,1.2382,1.2418,1.2452,1.2523,1.2567,1.2592,1.2633,1.269,1.2739,1.275,1.2769,1.2777,1.2787,1.2734,1.2728,1.2722,1.2708,1.2781,1.2781,1.284,1.2841,1.2841]},{"header":{"parameterUnit":"m.s-1","parameterCategory":1,"la1":30.2991,"la2":30.254,"lo1":-89.0895,"lo2":-89.0444,"dy":0.0017,"dx":0.0017,"nx":28,"ny":28,"refTime":"2025-11-13T09:00:00:Z","depth":0,"parameterNumber":3,"parameterNumberName":"V-component_of_WINDS"},"data":[0,0,0,0,0,0,0,0,0,0,0,0,0,0,0,0,0,0,0,0,0,0,0,0,0,0,0,0,0,0,0,0,0,0,0,0,0,0,0,0,0,0,0,0,0,0,0,0,0,0,0,0,0,0,0,0,0,0,1.1125,1.1124,0,1.1058,1.1057,1.1056,1.1019,1.1019,1.1019,1.1019,1.0946,1.0945,1.0943,0,0,0,0,0,0,0,0,0,0,0,0,0,1.1217,1.1216,1.1125,1.1124,1.1123,1.1058,1.1057,1.1056,1.1019,1.1019,1.1019,1.1019,1.0947,1.0945,1.0943,0,0,0,0,0,0,0,0,0,0,0,0,0,1.1166,1.1215,1.1125,1.1097,1.1094,1.1058,1.1057,1.1056,1.1019,1.1019,1.1019,1.1019,1.0948,1.0945,1.0942,1.0928,0,0,1.0934,1.0933,0,0,0,0,0,0,0,0,1.1169,1.1163,1.1102,1.1099,1.1095,1.1047,1.1063,1.1013,1.1019,1.1047,1.1019,1.1019,1.098,1.0974,1.0962,1.0925,1.0922,1.0934,1.0932,1.0931,1.093,0,0,0,0,0,0,0,1.1173,1.1166,1.1098,1.1101,1.1097,1.1087,1.1079,1.1053,1.1015,1.1045,1.1042,1.1035,1.0978,1.0965,1.096,1.0921,1.0934,1.0931,1.093,1.0929,1.0867,1.0867,0,0,0,0,0,0,1.1181,1.1169,1.1101,1.1096,1.1133,1.1085,1.1077,1.1063,1.1015,1.1008,1.1035,1.1033,1.0969,1.0963,1.0957,1.0937,1.0931,1.0928,1.0927,1.0867,1.0867,1.0867,0,0,0,0,0,0,1.1184,1.1176,1.1103,1.1132,1.1122,1.1084,1.1068,1.1061,1.1048,1.1008,1.1,1.1029,1.0969,1.0961,1.0936,1.0934,1.0927,1.0925,1.0867,1.0867,1.0867,1.0896,0,0,0,0,0,0,1.1186,1.1177,1.1172,1.1132,1.112,1.1084,1.1068,1.106,1.1044,1.1041,1.1,1.0993,1.0968,1.094,1.0933,1.093,1.0922,1.0867,1.0867,1.0867,1.0895,1.0897,1.0898,0,0,0,0,0,1.119,1.1182,1.1172,1.1164,1.1114,1.1084,1.1077,1.105,1.1044,1.1038,1.1012,1.0995,1.0935,1.0938,1.0929,1.0925,1.0867,1.0867,1.0867,1.0894,1.0896,1.0898,0,0,0,0,0,0,1.1222,1.1177,1.1165,1.1144,1.1119,1.1078,1.107,1.1054,1.1028,1.1026,1.0992,1.0983,1.0961,1.094,1.0944,1.0908,1.0899,1.0897,1.0922,1.0924,1.0926,1.0931,1.092,0,0,0,0,0,1.1227,1.1208,1.1169,1.1154,1.1142,1.1108,1.1094,1.1076,1.1047,1.1035,1.1007,1.0979,1.0954,1.0938,1.0913,1.0892,1.0881,1.0885,1.0887,1.0888,1.0887,1.0873,1.0873,1.0867,1.0867,1.0867,0,0,1.1237,1.121,1.1199,1.116,1.1138,1.1117,1.1099,1.1079,1.1063,1.1032,1.1006,1.0985,1.0951,1.0927,1.0915,1.0909,1.0887,1.0888,1.089,1.0888,1.0873,1.0874,1.0874,1.0867,1.0867,1.0867,0,0,1.1244,1.1222,1.1207,1.1185,1.1152,1.1129,1.1126,1.1088,1.1072,1.1046,1.1022,1.1002,1.096,1.0936,1.0919,1.0916,1.0898,1.0909,1.0918,1.0905,1.0905,1.0905,1.0903,1.0903,1.0908,1.0908,1.0908,0,1.126,1.1229,1.1201,1.1182,1.1165,1.1137,1.1121,1.11,1.106,1.1048,1.1043,1.0988,1.0964,1.0933,1.0933,1.092,1.0913,1.0913,1.0908,1.0907,1.0907,1.0905,1.0904,1.0909,1.0909,1.0909,1.0909,0,1.1249,1.1228,1.122,1.1183,1.1165,1.1147,1.1115,1.11,1.1083,1.106,1.1033,1.1003,1.097,1.0961,1.0944,1.0928,1.0926,1.0914,1.0904,1.091,1.0907,1.0906,1.0911,1.0911,1.091,1.091,0,0,1.1275,1.1223,1.122,1.1202,1.1163,1.1146,1.1126,1.1095,1.1082,1.1055,1.1037,1.1001,1.099,1.097,1.095,1.0938,1.0936,1.0928,1.0926,1.093,1.0916,1.0924,1.0924,1.0925,1.0925,1.0924,1.0918,0,1.1275,1.124,1.1214,1.1188,1.1168,1.1141,1.1123,1.1096,1.1075,1.1053,1.1028,1.1003,1.0991,1.0979,1.0967,1.094,1.0933,1.094,1.0906,1.0905,1.0915,1.0922,1.0931,1.0927,1.0917,1.0917,1.0917,0,1.1272,1.1246,1.1219,1.1181,1.1171,1.1156,1.1125,1.1106,1.1074,1.1059,1.1037,1.1016,1.0992,1.0984,1.095,1.0955,1.094,1.0924,1.0923,1.0919,1.0911,1.0917,1.0925,1.0925,1.0915,1.0915,1.0915,0,1.1292,1.1251,1.1228,1.1214,1.117,1.116,1.1141,1.1109,1.1092,1.1065,1.1053,1.1023,1.1006,1.0982,1.0953,1.095,1.0921,1.0912,1.0907,1.0908,1.0901,1.0902,1.0907,1.0893,1.0893,1.0893,1.0893,0,1.1294,1.1278,1.1237,1.1223,1.1204,1.1173,1.1154,1.1133,1.1105,1.1085,1.106,1.1042,1.1004,1.0981,1.0958,1.0933,1.0925,1.0911,1.0905,1.0913,1.0915,1.0902,1.0901,1.0893,1.0893,1.0893,1.0893,0,1.1313,1.1285,1.1259,1.1219,1.1209,1.1196,1.1162,1.1146,1.1123,1.1099,1.1091,1.1055,1.1026,1.0994,1.0955,1.0939,1.0915,1.0907,1.0926,1.0922,1.0919,1.0919,1.0915,1.0912,1.0901,1.0902,1.0902,0,1.1317,1.1304,1.1263,1.1249,1.123,1.1208,1.119,1.1159,1.1142,1.1105,1.1094,1.1063,1.1037,1.0993,1.0961,1.0931,1.0921,1.0921,1.0916,1.0924,1.092,1.0921,1.0919,1.0923,1.0923,1.0923,1.0924,0,1.1325,1.1312,1.1288,1.1259,1.124,1.1215,1.1189,1.1179,1.1143,1.1124,1.1095,1.1075,1.1035,1.1005,1.097,1.0949,1.093,1.0926,1.0923,1.0931,1.0942,1.0935,1.093,1.0926,1.0926,1.0925,1.0925,1.0925,1.1335,1.1322,1.1292,1.1266,1.1243,1.122,1.1204,1.1179,1.1155,1.112,1.1103,1.1074,1.1042,1.0994,1.0973,1.0948,1.0942,1.0938,1.0937,1.0937,1.0938,1.0947,1.0942,1.0942,1.0942,1.0942,1.0942,0,1.1342,1.1321,1.1297,1.1263,1.1242,1.1228,1.1198,1.1181,1.1157,1.1129,1.1104,1.107,1.104,1.1007,1.0975,1.0962,1.0952,1.0954,1.0954,1.0949,1.0946,1.0951,1.0962,1.0962,1.0962,1.0962,1.0962,1.0962,1.1343,1.1319,1.1302,1.1267,1.1245,1.1218,1.1202,1.118,1.1157,1.1121,1.1097,1.1076,1.1045,1.101,1.0982,1.0972,1.0961,1.0966,1.0954,1.0951,1.095,1.0948,1.0953,1.0964,1.0964,1.0959,1.0959,1.0959]}]]